This is the latest recevied weather packets stored in our database for station/object WA6OOO. If no packets are shown the sender has not sent any weather packets the latest 10 day(s).
| Time | Temp. | Humidity | Pressure | Rain* | Wind** | Luminosity | Snow |
|---|---|---|---|---|---|---|---|
| 1788640838 | 27.22° C | 55% | 1017 hPa | 0 mm | - | 691 W/m² | - |
| 1788640538 | 26.67° C | 55% | 1017.1 hPa | 0 mm | - | 695 W/m² | - |
| 1788640233 | 26.67° C | 57% | 1017.1 hPa | 0 mm | - | 699 W/m² | - |
| 1788639929 | 26.11° C | 59% | 1017.2 hPa | 0 mm | - | 702 W/m² | - |
| 1788639624 | 26.67° C | 57% | 1017.3 hPa | 0 mm | - | 703 W/m² | - |
| 1788639320 | 26.11° C | 59% | 1017.4 hPa | 0 mm | - | 704 W/m² | - |
| 1788639019 | 26.67° C | 61% | 1017.3 hPa | 0 mm | - | 704 W/m² | - |
| 1788638715 | 26.11° C | 62% | 1017.4 hPa | 0 mm | - | 704 W/m² | - |
| 1788638415 | 26.11° C | 63% | 1017.5 hPa | 0 mm | - | 704 W/m² | - |
| 1788638114 | 26.11° C | 62% | 1017.4 hPa | 0 mm | - | 707 W/m² | - |
| 1788637810 | 26.11° C | 64% | 1017.5 hPa | 0 mm | - | 704 W/m² | - |
| 1788637510 | 26.11° C | 62% | 1017.5 hPa | 0 mm | - | 704 W/m² | - |
| 1788637204 | 26.11° C | 64% | 1017.6 hPa | 0 mm | - | 701 W/m² | - |
| 1788636904 | 26.67° C | 62% | 1017.6 hPa | 0 mm | - | 700 W/m² | - |
| 1788636599 | 26.11° C | 61% | 1017.6 hPa | 0 mm | - | 699 W/m² | - |
| 1788636294 | 25.56° C | 63% | 1017.8 hPa | 0 mm | - | 698 W/m² | - |
| 1788635991 | 26.11° C | 64% | 1017.9 hPa | 0 mm | - | 693 W/m² | - |
| 1788635690 | 26.67° C | 63% | 1018 hPa | 0 mm | - | 691 W/m² | - |
| 1788635389 | 26.67° C | 63% | 1017.9 hPa | 0 mm | - | 687 W/m² | - |
| 1788635087 | 26.11° C | 61% | 1018 hPa | 0 mm | - | 682 W/m² | - |
| 1788634786 | 26.67° C | 60% | 1017.9 hPa | 0 mm | - | 678 W/m² | - |
| 1788634481 | 26.67° C | 59% | 1017.9 hPa | 0 mm | - | 675 W/m² | - |
| 1788634179 | 26.11° C | 61% | 1017.9 hPa | 0 mm | - | 666 W/m² | - |
| 1788633874 | 26.67° C | 59% | 1018 hPa | 0 mm | - | 661 W/m² | - |
| 1788633573 | 26.67° C | 60% | 1018.1 hPa | 0 mm | - | 656 W/m² | - |
* Rain latest hour (hover to see other rain measurements)
** Current wind speed in m/s (hover to see current wind gust speed)